Location: Ahstedt
(52.2048°N, 10.1060°E)
Time: 00:07:55
(UTC+00:00)

CZ-2C R/B - Pass Details

Date: 18 January 2026
Orbit: 662 x 774 km, 98.4° (Epoch: 17 February)

Event Time Altitude Azimuth Distance (km) Brightness Sun altitude
Rises 05:04:55 0° 6° (N) 3,044 5.6 -19.9°
Reaches altitude 10° 05:07:35 10° 351° (N) 2,113 4.6 -19.5°
Enters shadow 05:08:25 14° 344° (NNW) 1,871 4.3 -19.3°
